STARLINK-30967, 58416

Orbit data source: Space-Track

STARLINK-30967, 58416 is a payload satellite owned by SpaceX/Seattle (US) in LEO that was launched on Wed, 22 Nov 2023 UTC via an FALCON 9 launch vehicle from the Air Force Eastern Test Range (AFETR). Payload-class satellites include a variety of spacecraft equipped with specific instruments for various scientific and technological missions. These include communications satellites like Starlink; space stations such as the ISS; scientific satellites like the Hubble; Earth observation satellites from companies like Planet Labs, Umbra, and HawkEye 360; GPS; miniature CubeSats for education and research; and military/defense satellites.

Loading next visibility...
Identifier
58416, 2023-180Q
Orbit
LEO
Country
Flag of USUS
Related business
Manufacturer
SpaceX/Seattle
Mission
Operational Commercial Communications
Bus & Motor
STARLINK V2M, Unknown motor
Mass
730 kg wet, ~700 kg dry
Launch date (UTC)
2023-11-22 (3 years ago)
Launch vehicle
FALCON 9
Launch site
Air Force Eastern Test Range (AFETR)
Object type
Payload
Rocket body
Debris
Shape & HBR
Box + 2 Pan, 17.7 m
Radar Cross Section
33.884 m², Large (>1 m²)

Expand to show TLE details & history
Last TLE update: 2 days ago

TLE from 2 days ago
0 STARLINK-30967
1 58416U 23180Q   26171.13539357  .00000555  00000-0  29717-4 0  9996
2 58416  43.0028 193.9892 0001958 278.4079  81.6551 15.27579771143290
Epoch: 2026-06-20T03:14Z
TLE epoch observation values (Epoch: 2026-06-20T03:14:58.004Z)
Latitude
Longitude
-123.10684°
Altitude
482.631 km
Speed
7.626 km/s
True Right ascension
12h 55m 57s
True Declination
0° 00' 00"
Sunlit
Object was in daylight at epoch
Visualization orbit readout
Latitude
Unknown
Longitude
Unknown
Altitude
Unknown
Speed
Unknown
Apparent Right ascension
Unknown
Apparent Declination
Unknown
Sunlit
N/A
Visualization observer readout
Local Sidereal Time
21:43:08
Azimuth
Unknown
Elevation
Unknown
Doppler factor
Unknown
Orbital elements
Apogee altitude
486.338 km
Perigee altitude
483.651 km
Semi-major axis
6,863.131 km
Eccentricity
0.0002
Inclination
43.0028°
RAAN
193.9892°
Arg. of periapsis
278.4079°
True anomaly
81.6773°
Mean anomaly
81.6551°
Eccentric anomaly
81.6662°
Mean motion
3.81733 °/min
Orbital period
94.31 mins
BSTAR
0.000029717
Loading maneuver chart data...
Computing Atmospheric mass density...
Loading historical data...
Loading historical data...
Loading historical data...
Loading historical data...
Loading historical data...
Loading historical data...
Loading historical data...

Documentation

Showing up to 5 results
|